Tracking 17631 objects as of 5-May-2016
HD Live streaming from Space Station
objects crossing your sky now

ARIANE 5 DEB (SYLDA)

Track ARIANE 5 DEB (SYLDA) now!


NORAD ID: 28914
Int'l Code: 2005-049D
Perigee: 651.8 km
Apogee: 36,036.5 km
Inclination: 4.1 °
Period: 644.5 minutes
Semi major axis: 24715 km
RCS: 22.4158 m2 (large)
Launch date: December 21, 2005
Source: France (FR)
Launch site: FRENCH GUIANA (FRGUI)

Note: This is SATELLITE DEBRIS
Your satellite tracking list
Your tracking list is empty





NASA's NSSDC Master Catalog

Two Line Element Set (TLE):
1 28914U 05049D   16125.17892039 -.00000179  00000-0 -17005-2 0  9990
2 28914   4.1259 274.0184 7158507  87.6003 180.8718  2.23438668 84614
Source of the keplerian elements: AFSPC

N2YO: 330